Powrót do katalogu

FENGYUN 1C DEB

AktywnySSO
NORAD 30409·DEBRIS·🇨🇳 China

Wystrzelony May 10, 1999 z Taiyuan Satellite Launch Center

Loading…

Następne Przeloty (najbliższe 24 godziny)

TLE

ŚwieżeSource: Space-Track

Epoka: Sep 14, 2026, 08:37 UTC

1 30409U 99025ADY 26257.35918010  .00000626  00000-0  37138-3 0  9999
2 30409  98.4988 231.7906 0165654 307.0287 218.9793 14.04314275  2952

Śledź FENGYUN 1C DEB w czasie rzeczywistym z AllMySat

Download on the App Store